Regional Weather Roundup
Issued by NWS Boston, MA

Current Version | Previous Version | Text Only | Print | Product List | Glossary Off
Versions: 1 2 3 4 5 6 7 8 9 10 11 12 13 14 15 16 17 18 19 20 21 22 23 24 25 26 27
000 ASUS41 KBOX 240910 RWRBOX REGIONAL WEATHER ROUNDUP NATIONAL WEATHER SERVICE TAUNTON MA 500 AM EDT SUN SEP 24 2017 NOTE: "FAIR" INDICATES FEW OR NO CLOUDS BELOW 12,000 FEET WITH NO SIGNIFICANT WEATHER AND/OR OBSTRUCTIONS TO VISIBILITY. MAZALL-241000- EASTERN MASSACHUSETTS CITY SKY/WX TMP DP RH WIND PRES REMARKS BOSTON CLEAR 62 61 96 CALM 30.03S BEVERLY CLEAR 60 59 96 CALM 30.02S LAWRENCE CLEAR 63 60 90 CALM 30.06R BEDFORD CLEAR 58 55 90 CALM 30.03R BLUE HILL N/A 66 59 78 N12 30.04S NORWOOD PTCLDY 56 55 97 CALM 30.03S FOG MARSHFIELD PTCLDY 57 57 100 CALM 30.03S PLYMOUTH FOG 59 56 89 CALM 30.04R VSB 1/4 TAUNTON PTCLDY 55 54 96 CALM 30.03S FOG NEW BEDFORD CLEAR 57 56 96 CALM 30.02S $$ MAZALL-241000- CAPE COD AND THE ISLANDS CITY SKY/WX TMP DP RH WIND PRES REMARKS FALMOUTH FOG 59 59 100 CALM 30.04R VSB 3/4 HYANNIS FOG 60 60 100 N7 30.01R VSB 1/2 CHATHAM FOG 61 61 100 N6 30.03R VSB 1/4 PROVINCETOWN CLEAR 59 59 100 CALM 30.04R NANTUCKET FOG 61 61 100 N13 30.01R VSB 1/2 MARTHAS VNYRD FOG 62 61 96 N6 30.02R VSB 1/4 $$ MAZALL-241000- CENTRAL AND WESTERN MASSACHUSETTS CITY SKY/WX TMP DP RH WIND PRES REMARKS WORCESTER CLEAR 73 58 59 N8 30.07S FITCHBURG CLEAR 63 60 90 CALM 30.06R ORANGE CLEAR 57 57 100 CALM 30.08R SPRINGFIELD CLEAR 57 56 94 CALM 30.05R WESTFIELD CLEAR 60 59 96 N5 30.06R NORTH ADAMS CLEAR 54 52 93 CALM 30.11S PITTSFIELD CLEAR 56 54 93 CALM 30.10S $$ RIZALL-241000- RHODE ISLAND CITY SKY/WX TMP DP RH WIND PRES REMARKS PROVIDENCE PTCLDY 61 60 97 W3 30.04S NEWPORT FOG 60 60 100 CALM 30.03R VSB 1/4 BLOCK ISLAND CLEAR 64 63 96 NW6 30.04R SMITHFIELD CLEAR 60 59 96 CALM 30.05R WESTERLY CLEAR 59 57 93 CALM 30.04R $$ CTZALL-241000- CONNECTICUT CITY SKY/WX TMP DP RH WIND PRES REMARKS BRADLEY INTL CLEAR 61 59 93 CALM 30.06R HARTFORD CLEAR 62 61 96 CALM 30.05S BRIDGEPORT CLEAR 65 60 84 CALM 30.05R DANBURY CLEAR 59 57 93 CALM 30.09R GROTON CLEAR 59 58 96 N3 30.04R NEW HAVEN CLEAR 64 59 83 CALM 30.05R CHESTER FAIR 66 59 77 NW6 30.05S MERIDEN CLEAR 60 58 92 CALM 30.06R WILLIMANTIC CLEAR 60 59 96 CALM 30.06R OXFORD CLEAR 65 59 81 N6 30.08R $$ MEZ002-015-021-024-NHZ003-005-008-011-012-014-VTZ005-008-241000- NORTHERN NEW ENGLAND CITY SKY/WX TMP DP RH WIND PRES REMARKS PORTLAND ME PTCLDY 64 60 87 CALM 30.04R BANGOR ME CLEAR 58 56 93 CALM 30.03R CONCORD NH CLEAR 59 57 93 CALM 30.06R MANCHESTER NH CLEAR 66 61 84 CALM 30.04R NASHUA NH CLEAR 61 59 93 NW3 30.05S PORTSMOUTH NH NOT AVBL JAFFREY NH CLEAR 57 57 100 CALM 30.09S KEENE NH CLEAR 56 55 97 CALM 30.10R BURLINGTON VT CLEAR 63 61 93 CALM 30.08R MT. WASHINGTON CLEAR 55 50 82 NW22 N/A $$ NYZ052-076-241000- EASTERN NEW YORK CITY SKY/WX TMP DP RH WIND PRES REMARKS ALBANY CLEAR 61 58 90 CALM 30.09S NEW YORK CITY CLEAR 72 61 68 NE3 30.04R $$ ANZALL-241000- MARINE OBSERVATIONS STATION/POSITION TIME TEMP WIND PRES VSBY WAVE AIR SEA DIR/SP/G HT/PER (UTC) (F) (DEG/KT/KT) (MB) (MI) (FT/S) BOSTON BUOY 0850 61 61 240/ 2/ 4 1016.6R 3/ 8 BUZZARDS BAY 0800 62 10/ 5/ 5 1016.9R NANTUCKET SOUND 0850 60 62 10/ 8/ 10 1016.2R 1/13 MASS BAY-STELLWA 0804 61 61 170/ 2/ 2 1015.7S 3/ 8 ISLE OF SHOALS 0800 64 290/ 7/ 7 1016.4R S OF BLOCK IS NOT AVBL $$ ......................KEY......................... SKY/WX - SKY CONDITION/PRESENT WEATHER TMP - TEMPERATURE IN FAHRENHEIT DWPT - DEWPOINT IN FAHRENHEIT RH - RELATIVE HUMIDITY IN PERCENT WIND - DIRECTION AND SPEED IN MPH PRES - MEAN SEA LEVEL PRESSURE IN INCHES OF HG WCI - WIND CHILL INDEX VSB - VISIBILITY IN MILES HX - HEAT INDEX TC - TEMPERATURE IN CELSIUS VRB - VARIABLE WIND DIRECTION N/A - NOT AVAILABLE

USA.gov is the U.S. government's official web portal to all federal, state and local government web resources and services.